iso_date,epoch_date,Year,Hour,Min,DOY,POS_DOY,Lat,Lon,BP,Ts,Ta,has_bp,has_ts,has_ta,BuoyID,Buoy_Type,Buoy_Owner,Logistics,Hemisphere
2014-08-26T21:00:00Z,1409086800,2014,21,0,238.875,238.875,89.96418,90.0,-999.00,-999.00,-999.0,no,no,no,300234061766880,IMB,AWI-USIABP,unknown,North
2014-08-27T03:00:00Z,1409108400,2014,3,0,239.125,239.125,89.96418,0.0,-999.00,-999.00,-999.0,no,no,no,300234061766880,IMB,AWI-USIABP,unknown,North
2014-08-27T09:00:00Z,1409130000,2014,9,0,239.375,239.375,89.91991,63.43495,-999.00,-999.00,-999.0,no,no,no,300234061766880,IMB,AWI-USIABP,unknown,North
2014-08-27T15:00:00Z,1409151600,2014,15,0,239.625,239.625,89.96418,90.0,-999.00,-999.00,-999.0,no,no,no,300234061766880,IMB,AWI-USIABP,unknown,North
2014-08-27T21:00:00Z,1409173200,2014,21,0,239.875,239.875,89.89255,90.0,-999.00,-999.00,-999.0,no,no,no,300234061766880,IMB,AWI-USIABP,unknown,North
2014-08-28T03:00:00Z,1409194800,2014,3,0,240.125,240.125,89.85233,75.96376,-999.00,-999.00,-999.0,no,no,no,300234061766880,IMB,AWI-USIABP,unknown,North
2014-08-28T09:00:00Z,1409216400,2014,9,0,240.375,240.375,89.92837,90.0,-999.00,-999.00,-999.0,no,no,no,300234061766880,IMB,AWI-USIABP,unknown,North
2014-08-28T15:00:00Z,1409238000,2014,15,0,240.625,240.625,89.96418,90.0,-999.00,-999.00,-999.0,no,no,no,300234061766880,IMB,AWI-USIABP,unknown,North
2014-08-28T21:00:00Z,1409259600,2014,21,0,240.875,240.875,89.89255,90.0,-999.00,-999.00,-999.0,no,no,no,300234061766880,IMB,AWI-USIABP,unknown,North
2014-08-29T03:00:00Z,1409281200,2014,3,0,241.125,241.125,89.91991,63.43495,-999.00,-999.00,-999.0,no,no,no,300234061766880,IMB,AWI-USIABP,unknown,North
2014-08-29T09:00:00Z,1409302800,2014,9,0,241.375,241.375,89.79116,59.03624,-999.00,-999.00,-999.0,no,no,no,300234061766880,IMB,AWI-USIABP,unknown,North
2014-08-29T15:00:00Z,1409324400,2014,15,0,241.625,241.625,87.01003,-85.17923,-999.00,-999.00,-999.0,no,no,no,300234061766880,IMB,AWI-USIABP,unknown,North
2014-08-29T21:00:00Z,1409346000,2014,21,0,241.875,241.875,89.8987,45.0,-999.00,-999.00,-999.0,no,no,no,300234061766880,IMB,AWI-USIABP,unknown,North
2014-08-30T03:00:00Z,1409367600,2014,3,0,242.125,242.125,89.88674,18.43495,-999.00,-999.00,-999.0,no,no,no,300234061766880,IMB,AWI-USIABP,unknown,North
2014-08-30T09:00:00Z,1409389200,2014,9,0,242.375,242.375,89.89255,0.0,-999.00,-999.00,-999.0,no,no,no,300234061766880,IMB,AWI-USIABP,unknown,North
2014-08-30T15:00:00Z,1409410800,2014,15,0,242.625,242.625,89.89255,0.0,-999.00,-999.00,-999.0,no,no,no,300234061766880,IMB,AWI-USIABP,unknown,North
2014-08-30T21:00:00Z,1409432400,2014,21,0,242.875,242.875,89.88674,18.43495,-999.00,-999.00,-999.0,no,no,no,300234061766880,IMB,AWI-USIABP,unknown,North
2014-08-31T03:00:00Z,1409454000,2014,3,0,243.125,243.125,89.77066,38.65981,-999.00,-999.00,-999.0,no,no,no,300234061766880,IMB,AWI-USIABP,unknown,North
2014-08-31T09:00:00Z,1409475600,2014,9,0,243.375,243.375,89.92837,0.0,-999.00,-999.00,-999.0,no,no,no,300234061766880,IMB,AWI-USIABP,unknown,North
2014-08-31T15:00:00Z,1409497200,2014,15,0,243.625,243.625,89.81737,-11.30993,-999.00,-999.00,-999.0,no,no,no,300234061766880,IMB,AWI-USIABP,unknown,North
2014-08-31T21:00:00Z,1409518800,2014,21,0,243.875,243.875,89.82092,0.0,-999.00,-999.00,-999.0,no,no,no,300234061766880,IMB,AWI-USIABP,unknown,North
2014-09-01T03:00:00Z,1409540400,2014,3,0,244.125,244.125,89.81737,-11.30993,-999.00,-999.00,-999.0,no,no,no,300234061766880,IMB,AWI-USIABP,unknown,North
2014-09-01T09:00:00Z,1409562000,2014,9,0,244.375,244.375,89.82092,0.0,-999.00,-999.00,-999.0,no,no,no,300234061766880,IMB,AWI-USIABP,unknown,North
2014-09-01T15:00:00Z,1409583600,2014,15,0,244.625,244.625,89.81737,-11.30993,-999.00,-999.00,-999.0,no,no,no,300234061766880,IMB,AWI-USIABP,unknown,North
2014-09-01T21:00:00Z,1409605200,2014,21,0,244.875,244.875,89.7851,0.0,-999.00,-999.00,-999.0,no,no,no,300234061766880,IMB,AWI-USIABP,unknown,North
2014-09-02T03:00:00Z,1409626800,2014,3,0,245.125,245.125,89.78214,-9.46232,-999.00,-999.00,-999.0,no,no,no,300234061766880,IMB,AWI-USIABP,unknown,North
2014-09-02T09:00:00Z,1409648400,2014,9,0,245.375,245.375,89.7851,0.0,-999.00,-999.00,-999.0,no,no,no,300234061766880,IMB,AWI-USIABP,unknown,North
2014-09-02T21:00:00Z,1409691600,2014,21,0,245.875,245.875,89.82092,0.0,-999.00,-999.00,-999.0,no,no,no,300234061766880,IMB,AWI-USIABP,unknown,North
2014-09-03T03:00:00Z,1409713200,2014,3,0,246.125,246.125,89.81737,-11.30993,-999.00,-999.00,-999.0,no,no,no,300234061766880,IMB,AWI-USIABP,unknown,North
2014-09-03T09:00:00Z,1409734800,2014,9,0,246.375,246.375,89.85673,0.0,-999.00,-999.00,-999.0,no,no,no,300234061766880,IMB,AWI-USIABP,unknown,North
2014-09-03T15:00:00Z,1409756400,2014,15,0,246.625,246.625,89.78214,-9.46232,-999.00,-999.00,-999.0,no,no,no,300234061766880,IMB,AWI-USIABP,unknown,North
2014-09-03T21:00:00Z,1409778000,2014,21,0,246.875,246.875,89.82092,0.0,-999.00,-999.00,-999.0,no,no,no,300234061766880,IMB,AWI-USIABP,unknown,North
2014-09-04T03:00:00Z,1409799600,2014,3,0,247.125,247.125,89.7851,0.0,-999.00,-999.00,-999.0,no,no,no,300234061766880,IMB,AWI-USIABP,unknown,North
2014-09-04T09:00:00Z,1409821200,2014,9,0,247.375,247.375,89.85673,0.0,-999.00,-999.00,-999.0,no,no,no,300234061766880,IMB,AWI-USIABP,unknown,North
2014-09-04T15:00:00Z,1409842800,2014,15,0,247.625,247.625,89.82092,0.0,-999.00,-999.00,-999.0,no,no,no,300234061766880,IMB,AWI-USIABP,unknown,North
2014-09-04T21:00:00Z,1409864400,2014,21,0,247.875,247.875,89.7851,0.0,-999.00,-999.00,-999.0,no,no,no,300234061766880,IMB,AWI-USIABP,unknown,North
2014-09-05T03:00:00Z,1409886000,2014,3,0,248.125,248.125,89.78214,-9.46232,-999.00,-999.00,-999.0,no,no,no,300234061766880,IMB,AWI-USIABP,unknown,North
2014-09-05T09:00:00Z,1409907600,2014,9,0,248.375,248.375,89.74929,0.0,-999.00,-999.00,-999.0,no,no,no,300234061766880,IMB,AWI-USIABP,unknown,North
2014-09-05T21:00:00Z,1409950800,2014,21,0,248.875,248.875,89.81737,-11.30993,-999.00,-999.00,-999.0,no,no,no,300234061766880,IMB,AWI-USIABP,unknown,North
2014-09-06T03:00:00Z,1409972400,2014,3,0,249.125,249.125,89.66022,18.43495,-999.00,-999.00,-999.0,no,no,no,300234061766880,IMB,AWI-USIABP,unknown,North
2014-09-06T09:00:00Z,1409994000,2014,9,0,249.375,249.375,89.78214,-9.46232,-999.00,-999.00,-999.0,no,no,no,300234061766880,IMB,AWI-USIABP,unknown,North
2014-09-06T15:00:00Z,1410015600,2014,15,0,249.625,249.625,89.70465,-14.03624,-999.00,-999.00,-999.0,no,no,no,300234061766880,IMB,AWI-USIABP,unknown,North
2014-09-06T21:00:00Z,1410037200,2014,21,0,249.875,249.875,89.71347,0.0,-999.00,-999.00,-999.0,no,no,no,300234061766880,IMB,AWI-USIABP,unknown,North
2014-09-07T03:00:00Z,1410058800,2014,3,0,250.125,250.125,89.67766,0.0,-999.00,-999.00,-999.0,no,no,no,300234061766880,IMB,AWI-USIABP,unknown,North
2014-09-07T09:00:00Z,1410080400,2014,9,0,250.375,250.375,89.74674,8.1301,-999.00,-999.00,-999.0,no,no,no,300234061766880,IMB,AWI-USIABP,unknown,North
2014-09-07T15:00:00Z,1410102000,2014,15,0,250.625,250.625,89.71124,7.12502,-999.00,-999.00,-999.0,no,no,no,300234061766880,IMB,AWI-USIABP,unknown,North
2014-09-07T21:00:00Z,1410123600,2014,21,0,250.875,250.875,89.66979,12.52881,-999.00,-999.00,-999.0,no,no,no,300234061766880,IMB,AWI-USIABP,unknown,North
2014-09-08T03:00:00Z,1410145200,2014,3,0,251.125,251.125,89.71347,0.0,-999.00,-999.00,-999.0,no,no,no,300234061766880,IMB,AWI-USIABP,unknown,North
2014-09-08T09:00:00Z,1410166800,2014,9,0,251.375,251.375,89.71347,0.0,-999.00,-999.00,-999.0,no,no,no,300234061766880,IMB,AWI-USIABP,unknown,North
2014-09-08T21:00:00Z,1410210000,2014,21,0,251.875,251.875,89.78214,9.46232,-999.00,-999.00,-999.0,no,no,no,300234061766880,IMB,AWI-USIABP,unknown,North
2014-09-09T03:00:00Z,1410231600,2014,3,0,252.125,252.125,89.7851,0.0,-999.00,-999.00,-999.0,no,no,no,300234061766880,IMB,AWI-USIABP,unknown,North
2014-09-09T09:00:00Z,1410253200,2014,9,0,252.375,252.375,89.82092,0.0,-999.00,-999.00,-999.0,no,no,no,300234061766880,IMB,AWI-USIABP,unknown,North
2014-09-09T15:00:00Z,1410274800,2014,15,0,252.625,252.625,89.7851,0.0,-999.00,-999.00,-999.0,no,no,no,300234061766880,IMB,AWI-USIABP,unknown,North
2014-09-09T21:00:00Z,1410296400,2014,21,0,252.875,252.875,89.74929,0.0,-999.00,-999.00,-999.0,no,no,no,300234061766880,IMB,AWI-USIABP,unknown,North
2014-09-10T03:00:00Z,1410318000,2014,3,0,253.125,253.125,89.74929,0.0,-999.00,-999.00,-999.0,no,no,no,300234061766880,IMB,AWI-USIABP,unknown,North
2014-09-10T09:00:00Z,1410339600,2014,9,0,253.375,253.375,89.82092,0.0,-999.00,-999.00,-999.0,no,no,no,300234061766880,IMB,AWI-USIABP,unknown,North
2014-09-10T15:00:00Z,1410361200,2014,15,0,253.625,253.625,89.7851,0.0,-999.00,-999.00,-999.0,no,no,no,300234061766880,IMB,AWI-USIABP,unknown,North
2014-09-10T21:00:00Z,1410382800,2014,21,0,253.875,253.875,89.74929,0.0,-999.00,-999.00,-999.0,no,no,no,300234061766880,IMB,AWI-USIABP,unknown,North
2014-09-11T03:00:00Z,1410404400,2014,3,0,254.125,254.125,89.74929,0.0,-999.00,-999.00,-999.0,no,no,no,300234061766880,IMB,AWI-USIABP,unknown,North
2014-09-11T09:00:00Z,1410426000,2014,9,0,254.375,254.375,89.74929,0.0,-999.00,-999.00,-999.0,no,no,no,300234061766880,IMB,AWI-USIABP,unknown,North
2014-09-11T15:00:00Z,1410447600,2014,15,0,254.625,254.625,89.77348,-18.43495,-999.00,-999.00,-999.0,no,no,no,300234061766880,IMB,AWI-USIABP,unknown,North
2014-09-11T21:00:00Z,1410469200,2014,21,0,254.875,254.875,89.81737,11.30993,-999.00,-999.00,-999.0,no,no,no,300234061766880,IMB,AWI-USIABP,unknown,North
2014-09-12T03:00:00Z,1410490800,2014,3,0,255.125,255.125,89.7851,0.0,-999.00,-999.00,-999.0,no,no,no,300234061766880,IMB,AWI-USIABP,unknown,North
2014-09-12T09:00:00Z,1410512400,2014,9,0,255.375,255.375,89.81737,11.30993,-999.00,-999.00,-999.0,no,no,no,300234061766880,IMB,AWI-USIABP,unknown,North
2014-09-12T15:00:00Z,1410534000,2014,15,0,255.625,255.625,89.7851,0.0,-999.00,-999.00,-999.0,no,no,no,300234061766880,IMB,AWI-USIABP,unknown,North
2014-09-12T21:00:00Z,1410555600,2014,21,0,255.875,255.875,89.78214,9.46232,-999.00,-999.00,-999.0,no,no,no,300234061766880,IMB,AWI-USIABP,unknown,North
2014-09-13T03:00:00Z,1410577200,2014,3,0,256.125,256.125,89.7851,0.0,-999.00,-999.00,-999.0,no,no,no,300234061766880,IMB,AWI-USIABP,unknown,North
2014-09-13T09:00:00Z,1410598800,2014,9,0,256.375,256.375,89.82092,0.0,-999.00,-999.00,-999.0,no,no,no,300234061766880,IMB,AWI-USIABP,unknown,North
2014-09-13T15:00:00Z,1410620400,2014,15,0,256.625,256.625,89.85673,0.0,-999.00,-999.00,-999.0,no,no,no,300234061766880,IMB,AWI-USIABP,unknown,North
2014-09-13T21:00:00Z,1410642000,2014,21,0,256.875,256.875,89.82092,0.0,-999.00,-999.00,-999.0,no,no,no,300234061766880,IMB,AWI-USIABP,unknown,North
2014-09-14T03:00:00Z,1410663600,2014,3,0,257.125,257.125,89.80712,-21.80141,-999.00,-999.00,-999.0,no,no,no,300234061766880,IMB,AWI-USIABP,unknown,North
2014-09-14T09:00:00Z,1410685200,2014,9,0,257.375,257.375,89.79739,-45.0,-999.00,-999.00,-999.0,no,no,no,300234061766880,IMB,AWI-USIABP,unknown,North
2014-09-14T15:00:00Z,1410706800,2014,15,0,257.625,257.625,89.82092,-36.8699,-999.00,-999.00,-999.0,no,no,no,300234061766880,IMB,AWI-USIABP,unknown,North
2014-09-14T21:00:00Z,1410728400,2014,21,0,257.875,257.875,89.82092,-36.8699,-999.00,-999.00,-999.0,no,no,no,300234061766880,IMB,AWI-USIABP,unknown,North
2014-09-15T03:00:00Z,1410750000,2014,3,0,258.125,258.125,89.77066,-51.34019,-999.00,-999.00,-999.0,no,no,no,300234061766880,IMB,AWI-USIABP,unknown,North
2014-09-15T09:00:00Z,1410771600,2014,9,0,258.375,258.375,89.77066,-51.34019,-999.00,-999.00,-999.0,no,no,no,300234061766880,IMB,AWI-USIABP,unknown,North
2014-09-15T15:00:00Z,1410793200,2014,15,0,258.625,258.625,89.74674,-45.0,-999.00,-999.00,-999.0,no,no,no,300234061766880,IMB,AWI-USIABP,unknown,North
2014-09-15T21:00:00Z,1410814800,2014,21,0,258.875,258.875,89.74674,-45.0,-999.00,-999.00,-999.0,no,no,no,300234061766880,IMB,AWI-USIABP,unknown,North
2014-09-16T03:00:00Z,1410836400,2014,3,0,259.125,259.125,89.66979,-49.39871,-999.00,-999.00,-999.0,no,no,no,300234061766880,IMB,AWI-USIABP,unknown,North
2014-09-16T09:00:00Z,1410858000,2014,9,0,259.375,259.375,89.72027,-50.19443,-999.00,-999.00,-999.0,no,no,no,300234061766880,IMB,AWI-USIABP,unknown,North
2014-09-16T15:00:00Z,1410879600,2014,15,0,259.625,259.625,89.75974,-63.43495,-999.00,-999.00,-999.0,no,no,no,300234061766880,IMB,AWI-USIABP,unknown,North
2014-09-16T21:00:00Z,1410901200,2014,21,0,259.875,259.875,89.6919,-54.46232,-999.00,-999.00,-999.0,no,no,no,300234061766880,IMB,AWI-USIABP,unknown,North
2014-09-17T03:00:00Z,1410922800,2014,3,0,260.125,260.125,89.63125,-60.9454,-999.00,-999.00,-999.0,no,no,no,300234061766880,IMB,AWI-USIABP,unknown,North
2014-09-17T09:00:00Z,1410944400,2014,9,0,260.375,260.375,89.59957,-63.43495,-999.00,-999.00,-999.0,no,no,no,300234061766880,IMB,AWI-USIABP,unknown,North
2014-09-17T15:00:00Z,1410966000,2014,15,0,260.625,260.625,89.61425,-68.19859,-999.00,-999.00,-999.0,no,no,no,300234061766880,IMB,AWI-USIABP,unknown,North
2014-09-17T21:00:00Z,1410987600,2014,21,0,260.875,260.875,89.59957,-63.43495,-999.00,-999.00,-999.0,no,no,no,300234061766880,IMB,AWI-USIABP,unknown,North
2014-09-18T03:00:00Z,1411009200,2014,3,0,261.125,261.125,89.54696,-71.56505,-999.00,-999.00,-999.0,no,no,no,300234061766880,IMB,AWI-USIABP,unknown,North
2014-09-18T09:00:00Z,1411030800,2014,9,0,261.375,261.375,89.51286,-72.89727,-999.00,-999.00,-999.0,no,no,no,300234061766880,IMB,AWI-USIABP,unknown,North
2014-09-18T15:00:00Z,1411052400,2014,15,0,261.625,261.625,89.40932,-75.96376,-999.00,-999.00,-999.0,no,no,no,300234061766880,IMB,AWI-USIABP,unknown,North
2014-09-18T21:00:00Z,1411074000,2014,21,0,261.875,261.875,89.38799,-69.44395,-999.00,-999.00,-999.0,no,no,no,300234061766880,IMB,AWI-USIABP,unknown,North
2014-09-19T03:00:00Z,1411095600,2014,3,0,262.125,262.125,89.32046,-71.56505,-999.00,-999.00,-999.0,no,no,no,300234061766880,IMB,AWI-USIABP,unknown,North
2014-09-19T09:00:00Z,1411117200,2014,9,0,262.375,262.375,89.32046,-71.56505,-999.00,-999.00,-999.0,no,no,no,300234061766880,IMB,AWI-USIABP,unknown,North
2014-09-19T15:00:00Z,1411138800,2014,15,0,262.625,262.625,89.2864,-72.47443,-999.00,-999.00,-999.0,no,no,no,300234061766880,IMB,AWI-USIABP,unknown,North
2014-09-19T21:00:00Z,1411160400,2014,21,0,262.875,262.875,89.27481,-69.77514,-999.00,-999.00,-999.0,no,no,no,300234061766880,IMB,AWI-USIABP,unknown,North
2014-09-20T03:00:00Z,1411182000,2014,3,0,263.125,263.125,89.20722,-71.56505,-999.00,-999.00,-999.0,no,no,no,300234061766880,IMB,AWI-USIABP,unknown,North
2014-09-20T09:00:00Z,1411203600,2014,9,0,263.375,263.375,89.17317,-72.34988,-999.00,-999.00,-999.0,no,no,no,300234061766880,IMB,AWI-USIABP,unknown,North
2014-09-20T15:00:00Z,1411225200,2014,15,0,263.625,263.625,89.17317,-72.34988,-999.00,-999.00,-999.0,no,no,no,300234061766880,IMB,AWI-USIABP,unknown,North
2014-09-20T21:00:00Z,1411246800,2014,21,0,263.875,263.875,89.20722,-71.56505,-999.00,-999.00,-999.0,no,no,no,300234061766880,IMB,AWI-USIABP,unknown,North
2014-09-21T03:00:00Z,1411268400,2014,3,0,264.125,264.125,89.18332,-74.74488,-999.00,-999.00,-999.0,no,no,no,300234061766880,IMB,AWI-USIABP,unknown,North
2014-09-21T09:00:00Z,1411290000,2014,9,0,264.375,264.375,89.15704,-77.73523,-999.00,-999.00,-999.0,no,no,no,300234061766880,IMB,AWI-USIABP,unknown,North
2014-09-21T15:00:00Z,1411311600,2014,15,0,264.625,264.625,89.16392,-80.13419,-999.00,-999.00,-999.0,no,no,no,300234061766880,IMB,AWI-USIABP,unknown,North
2014-09-21T21:00:00Z,1411333200,2014,21,0,264.875,264.875,89.14872,-75.37913,-999.00,-999.00,-999.0,no,no,no,300234061766880,IMB,AWI-USIABP,unknown,North
2014-09-22T03:00:00Z,1411354800,2014,3,0,265.125,265.125,89.12147,-78.23171,-999.00,-999.00,-999.0,no,no,no,300234061766880,IMB,AWI-USIABP,unknown,North
2014-09-22T09:00:00Z,1411376400,2014,9,0,265.375,265.375,89.16392,-80.13419,-999.00,-999.00,-999.0,no,no,no,300234061766880,IMB,AWI-USIABP,unknown,North
2014-09-22T15:00:00Z,1411398000,2014,15,0,265.625,265.625,89.13749,-85.23636,-999.00,-999.00,-999.0,no,no,no,300234061766880,IMB,AWI-USIABP,unknown,North
2014-09-22T21:00:00Z,1411419600,2014,21,0,265.875,265.875,89.09768,-83.15723,-999.00,-999.00,-999.0,no,no,no,300234061766880,IMB,AWI-USIABP,unknown,North
2014-09-23T03:00:00Z,1411441200,2014,3,0,266.125,266.125,89.06552,-85.60129,-999.00,-999.00,-999.0,no,no,no,300234061766880,IMB,AWI-USIABP,unknown,North
2014-09-23T09:00:00Z,1411462800,2014,9,0,266.375,266.375,89.02649,-83.65981,-999.00,-999.00,-999.0,no,no,no,300234061766880,IMB,AWI-USIABP,unknown,North
2014-09-23T15:00:00Z,1411484400,2014,15,0,266.625,266.625,89.02979,-85.76361,-999.00,-999.00,-999.0,no,no,no,300234061766880,IMB,AWI-USIABP,unknown,North
2014-09-23T21:00:00Z,1411506000,2014,21,0,266.875,266.875,89.05731,-81.25384,-999.00,-999.00,-999.0,no,no,no,300234061766880,IMB,AWI-USIABP,unknown,North
2014-09-24T03:00:00Z,1411527600,2014,3,0,267.125,267.125,89.02189,-81.57303,-999.00,-999.00,-999.0,no,no,no,300234061766880,IMB,AWI-USIABP,unknown,North
2014-09-24T09:00:00Z,1411549200,2014,9,0,267.375,267.375,89.016,-79.50852,-999.00,-999.00,-999.0,no,no,no,300234061766880,IMB,AWI-USIABP,unknown,North
2014-09-24T15:00:00Z,1411570800,2014,15,0,267.625,267.625,89.00885,-77.47119,-999.00,-999.00,-999.0,no,no,no,300234061766880,IMB,AWI-USIABP,unknown,North
2014-09-24T21:00:00Z,1411592400,2014,21,0,267.875,267.875,88.98012,-71.56505,-999.00,-999.00,-999.0,no,no,no,300234061766880,IMB,AWI-USIABP,unknown,North
2014-09-25T03:00:00Z,1411614000,2014,3,0,268.125,268.125,88.96823,-69.67686,-999.00,-999.00,-999.0,no,no,no,300234061766880,IMB,AWI-USIABP,unknown,North
2014-09-25T09:00:00Z,1411635600,2014,9,0,268.375,268.375,89.00175,-68.96249,-999.00,-999.00,-999.0,no,no,no,300234061766880,IMB,AWI-USIABP,unknown,North
2014-09-25T15:00:00Z,1411657200,2014,15,0,268.625,268.625,88.96823,-69.67686,-999.00,-999.00,-999.0,no,no,no,300234061766880,IMB,AWI-USIABP,unknown,North
2014-09-25T21:00:00Z,1411678800,2014,21,0,268.875,268.875,88.94121,-66.03751,-999.00,-999.00,-999.0,no,no,no,300234061766880,IMB,AWI-USIABP,unknown,North
2014-09-26T03:00:00Z,1411700400,2014,3,0,269.125,269.125,88.90837,-66.80141,-999.00,-999.00,-999.0,no,no,no,300234061766880,IMB,AWI-USIABP,unknown,North
2014-09-26T09:00:00Z,1411722000,2014,9,0,269.375,269.375,88.89377,-65.09523,-999.00,-999.00,-999.0,no,no,no,300234061766880,IMB,AWI-USIABP,unknown,North
2014-09-26T15:00:00Z,1411743600,2014,15,0,269.625,269.625,88.94121,-66.03751,-999.00,-999.00,-999.0,no,no,no,300234061766880,IMB,AWI-USIABP,unknown,North
2014-09-26T21:00:00Z,1411765200,2014,21,0,269.875,269.875,88.95832,-63.43495,-999.00,-999.00,-999.0,no,no,no,300234061766880,IMB,AWI-USIABP,unknown,North
2014-09-27T03:00:00Z,1411786800,2014,3,0,270.125,270.125,88.95832,-63.43495,-999.00,-999.00,-999.0,no,no,no,300234061766880,IMB,AWI-USIABP,unknown,North
2014-09-27T09:00:00Z,1411808400,2014,9,0,270.375,270.375,88.97384,-65.22486,-999.00,-999.00,-999.0,no,no,no,300234061766880,IMB,AWI-USIABP,unknown,North
2014-09-27T15:00:00Z,1411830000,2014,15,0,270.625,270.625,88.90837,-66.80141,-999.00,-999.00,-999.0,no,no,no,300234061766880,IMB,AWI-USIABP,unknown,North
2014-09-27T21:00:00Z,1411851600,2014,21,0,270.875,270.875,88.92437,-60.01836,-999.00,-999.00,-999.0,no,no,no,300234061766880,IMB,AWI-USIABP,unknown,North
2014-09-28T03:00:00Z,1411873200,2014,3,0,271.125,271.125,88.89319,-60.9454,-999.00,-999.00,-999.0,no,no,no,300234061766880,IMB,AWI-USIABP,unknown,North
2014-09-28T09:00:00Z,1411894800,2014,9,0,271.375,271.375,88.92437,-60.01836,-999.00,-999.00,-999.0,no,no,no,300234061766880,IMB,AWI-USIABP,unknown,North
2014-09-28T15:00:00Z,1411916400,2014,15,0,271.625,271.625,88.92437,-60.01836,-999.00,-999.00,-999.0,no,no,no,300234061766880,IMB,AWI-USIABP,unknown,North
2014-09-28T21:00:00Z,1411938000,2014,21,0,271.875,271.875,88.83719,-56.30993,-999.00,-999.00,-999.0,no,no,no,300234061766880,IMB,AWI-USIABP,unknown,North
2014-09-29T03:00:00Z,1411959600,2014,3,0,272.125,272.125,88.83719,-56.30993,-999.00,-999.00,-999.0,no,no,no,300234061766880,IMB,AWI-USIABP,unknown,North
2014-09-29T09:00:00Z,1411981200,2014,9,0,272.375,272.375,88.767,-54.46232,-999.00,-999.00,-999.0,no,no,no,300234061766880,IMB,AWI-USIABP,unknown,North
2014-09-29T15:00:00Z,1412002800,2014,15,0,272.625,272.625,88.77431,-52.12502,-999.00,-999.00,-999.0,no,no,no,300234061766880,IMB,AWI-USIABP,unknown,North
2014-09-29T21:00:00Z,1412024400,2014,21,0,272.875,272.875,88.70159,-50.59934,-999.00,-999.00,-999.0,no,no,no,300234061766880,IMB,AWI-USIABP,unknown,North
2014-09-30T03:00:00Z,1412046000,2014,3,0,273.125,273.125,88.65117,-50.38931,-999.00,-999.00,-999.0,no,no,no,300234061766880,IMB,AWI-USIABP,unknown,North
2014-09-30T09:00:00Z,1412067600,2014,9,0,273.375,273.375,88.60073,-50.19443,-999.00,-999.00,-999.0,no,no,no,300234061766880,IMB,AWI-USIABP,unknown,North
2014-09-30T15:00:00Z,1412089200,2014,15,0,273.625,273.625,88.6044,-48.12213,-999.00,-999.00,-999.0,no,no,no,300234061766880,IMB,AWI-USIABP,unknown,North
2014-09-30T21:00:00Z,1412110800,2014,21,0,273.875,273.875,88.50495,-45.97102,-999.00,-999.00,-999.0,no,no,no,300234061766880,IMB,AWI-USIABP,unknown,North
2014-10-01T03:00:00Z,1412132400,2014,3,0,274.125,274.125,88.42838,-43.15239,-999.00,-999.00,-999.0,no,no,no,300234061766880,IMB,AWI-USIABP,unknown,North
2014-10-01T09:00:00Z,1412154000,2014,9,0,274.375,274.375,88.479,-43.09085,-999.00,-999.00,-999.0,no,no,no,300234061766880,IMB,AWI-USIABP,unknown,North
2014-10-01T15:00:00Z,1412175600,2014,15,0,274.625,274.625,88.42593,-41.30861,-999.00,-999.00,-999.0,no,no,no,300234061766880,IMB,AWI-USIABP,unknown,North
2014-10-01T21:00:00Z,1412197200,2014,21,0,274.875,274.875,88.37539,-41.42367,-999.00,-999.00,-999.0,no,no,no,300234061766880,IMB,AWI-USIABP,unknown,North
2014-10-02T03:00:00Z,1412218800,2014,3,0,275.125,275.125,88.35148,-42.35745,-999.00,-999.00,-999.0,no,no,no,300234061766880,IMB,AWI-USIABP,unknown,North
2014-10-02T09:00:00Z,1412240400,2014,9,0,275.375,275.375,88.32484,-41.53177,-999.00,-999.00,-999.0,no,no,no,300234061766880,IMB,AWI-USIABP,unknown,North
2014-10-02T15:00:00Z,1412262000,2014,15,0,275.625,275.625,88.34837,-40.60129,-999.00,-999.00,-999.0,no,no,no,300234061766880,IMB,AWI-USIABP,unknown,North
2014-10-02T21:00:00Z,1412283600,2014,21,0,275.875,275.875,88.34371,-38.85337,-999.00,-999.00,-999.0,no,no,no,300234061766880,IMB,AWI-USIABP,unknown,North
2014-10-03T03:00:00Z,1412305200,2014,3,0,276.125,276.125,88.32484,-41.53177,-999.00,-999.00,-999.0,no,no,no,300234061766880,IMB,AWI-USIABP,unknown,North
2014-10-03T09:00:00Z,1412326800,2014,9,0,276.375,276.375,88.37145,-39.64417,-999.00,-999.00,-999.0,no,no,no,300234061766880,IMB,AWI-USIABP,unknown,North
2014-10-03T15:00:00Z,1412348400,2014,15,0,276.625,276.625,88.34837,-40.60129,-999.00,-999.00,-999.0,no,no,no,300234061766880,IMB,AWI-USIABP,unknown,North
2014-10-03T21:00:00Z,1412370000,2014,21,0,276.875,276.875,88.29336,-39.03551,-999.00,-999.00,-999.0,no,no,no,300234061766880,IMB,AWI-USIABP,unknown,North
2014-10-04T03:00:00Z,1412391600,2014,3,0,277.125,277.125,88.29336,-39.03551,-999.00,-999.00,-999.0,no,no,no,300234061766880,IMB,AWI-USIABP,unknown,North
2014-10-04T09:00:00Z,1412413200,2014,9,0,277.375,277.375,86.59836,-42.43623,-999.00,-999.00,-999.0,no,no,no,300234061766880,IMB,AWI-USIABP,unknown,North
2014-10-04T15:00:00Z,1412434800,2014,15,0,277.625,277.625,88.31568,-38.08877,-999.00,-999.00,-999.0,no,no,no,300234061766880,IMB,AWI-USIABP,unknown,North
2014-10-04T21:00:00Z,1412456400,2014,21,0,277.875,277.875,88.2654,-38.29016,-999.00,-999.00,-999.0,no,no,no,300234061766880,IMB,AWI-USIABP,unknown,North
2014-10-05T03:00:00Z,1412478000,2014,3,0,278.125,278.125,88.27058,-39.95755,-999.00,-999.00,-999.0,no,no,no,300234061766880,IMB,AWI-USIABP,unknown,North
2014-10-05T09:00:00Z,1412499600,2014,9,0,278.375,278.375,88.22013,-40.10091,-999.00,-999.00,-999.0,no,no,no,300234061766880,IMB,AWI-USIABP,unknown,North
2014-10-05T15:00:00Z,1412521200,2014,15,0,278.625,278.625,88.29336,-39.03551,-999.00,-999.00,-999.0,no,no,no,300234061766880,IMB,AWI-USIABP,unknown,North